Weather History for Fayetteville, NC

Change the Weather History Date:

Monday, January 21, 2013

  Actual Average Record
Temperature  
Mean Temperature 47 °F 44 °F  
Max Temperature 62 °F 55 °F 79 °F (1922)
Min Temperature 32 °F 33 °F -1 °F (1985)
Degree Days  
Heating Degree Days 18 21  
Month to date heating degree days 310 458  
Since 1 July heating degree days 1313 1517  
Cooling Degree Days 0 0  
Month to date cooling degree days 3 0  
Year to date cooling degree days 3 0  
Moisture  
Dew Point 31 °F    
Average Humidity 59    
Maximum Humidity 89    
Minimum Humidity 29    
Precipitation  
Precipitation 0.00 in 0.09 in 0.99 in (1963)
Month to date precipitation 1.42 2.02  
Year to date precipitation 1.42 2.02  
Sea Level Pressure  
Sea Level Pressure 29.97 in    
Wind  
Wind Speed 5 mph (WSW)    
Max Wind Speed 16 mph    
Max Gust Speed 21 mph    
Visibility 10 miles    
Events      
T = Trace of Precipitation, MM = Missing Value Source: NWS Daily Summary

Daily Weather History Graph

Daily Weather History Graph

Search for Another Location

Airport:

Trip Planner

Search our weather history database for the weather conditions in past years. The results will help you decide how hot, cold, wet, or windy it might be!

Date:

Astronomy

Jan. 21, 2013 Rise Set
Actual Time 7:20 AM EST 5:33 PM EST
Civil Twilight 6:53 AM EST 6:00 PM EST
Nautical Twilight 6:22 AM EST 6:31 PM EST
Astronomical Twilight 5:52 AM EST 7:01 PM EST
Moon 1:12 PM EST (1/21) 2:47 AM EST (1/21)
Length of Visible Light 11h 06m
Length of Day
10h 12m
Waxing Gibbous, 75% of the Moon is Illuminated
Jan 21
Waxing Gibbous
Jan 26
Full
Feb 3
Last Quarter
Feb 10
New
Feb 17
First Quarter

Hourly Weather History & Observations

Time (EST) Temp. Windchill Dew Point Humidity Pressure Visibility Wind Dir Wind Speed Gust Speed Precip Events Conditions
2:53 AM 35.1 °F - 30.9 °F 85% 30.06 in 10.0 mi Calm Calm - N/A   Clear
4:53 AM 35.1 °F - 30.9 °F 85% 30.05 in 10.0 mi Calm Calm - N/A   Clear
5:53 AM 34.0 °F - 28.9 °F 82% 30.04 in 10.0 mi Calm Calm - N/A   Clear
7:53 AM 35.1 °F - 30.9 °F 85% 30.05 in 10.0 mi Calm Calm - N/A   Clear
8:53 AM 42.1 °F 40.2 °F 35.1 °F 76% 30.06 in 10.0 mi NNE 3.5 mph - N/A   Clear
9:53 AM 48.0 °F - 33.1 °F 56% 30.07 in 10.0 mi Calm Calm - N/A   Clear
10:53 AM 53.1 °F - 30.0 °F 41% 30.05 in 10.0 mi Variable 4.6 mph - N/A   Clear
11:53 AM 57.0 °F - 27.0 °F 32% 30.01 in 10.0 mi SE 8.1 mph - N/A   Clear
12:53 PM 60.1 °F - 28.0 °F 30% 29.95 in 10.0 mi SSW 10.4 mph - N/A   Clear
1:53 PM 61.0 °F - 30.0 °F 31% 29.92 in 10.0 mi SW 8.1 mph - N/A   Clear
2:53 PM 62.1 °F - 32.0 °F 32% 29.90 in 10.0 mi WSW 11.5 mph - N/A   Clear
3:53 PM 62.1 °F - 32.0 °F 32% 29.89 in 10.0 mi WSW 12.7 mph - N/A   Clear
4:53 PM 59.0 °F - 32.0 °F 36% 29.89 in 10.0 mi WSW 9.2 mph - N/A   Clear
5:53 PM 54.0 °F - 32.0 °F 43% 29.90 in 10.0 mi WSW 5.8 mph - N/A   Clear
6:53 PM 51.1 °F - 34.0 °F 52% 29.90 in 10.0 mi SSW 6.9 mph - N/A   Clear
7:53 PM 48.9 °F - 34.0 °F 56% 29.91 in 10.0 mi SW 10.4 mph - N/A   Clear
8:53 PM 48.9 °F - 32.0 °F 52% 29.91 in 10.0 mi SW 8.1 mph - N/A   Clear
9:53 PM 50.0 °F - 30.9 °F 48% 29.94 in 10.0 mi West 9.2 mph - N/A   Clear
10:53 PM 46.0 °F 43.9 °F 30.9 °F 56% 29.96 in 10.0 mi West 4.6 mph - N/A   Clear
11:53 PM 44.1 °F 41.5 °F 27.0 °F 51% 29.96 in 10.0 mi West 4.6 mph - N/A   Clear